TimeCST,TemperatureF,Dew PointF,Humidity,Sea Level PressureIn,VisibilityMPH,Wind Direction,Wind SpeedMPH,Gust SpeedMPH,PrecipitationIn,Events,Conditions,WindDirDegrees,DateUTC
12:15 AM,32.0,32.0,100,29.83,10.0,Calm,Calm,-,N/A,,Clear,0,2012-11-21 06:15:00
12:35 AM,32.0,32.0,100,29.83,10.0,NNE,3.5,-,N/A,,Clear,30,2012-11-21 06:35:00
12:55 AM,32.0,32.0,100,29.83,10.0,Calm,Calm,-,N/A,,Clear,0,2012-11-21 06:55:00
1:15 AM,32.0,32.0,100,29.82,10.0,NE,3.5,-,N/A,,Clear,40,2012-11-21 07:15:00
1:35 AM,32.0,32.0,100,29.82,10.0,NE,3.5,-,N/A,,Clear,50,2012-11-21 07:35:00
1:55 AM,33.8,33.8,100,29.81,10.0,Calm,Calm,-,N/A,,Scattered Clouds,0,2012-11-21 07:55:00
2:15 AM,33.8,33.8,100,29.81,10.0,Calm,Calm,-,N/A,,Overcast,0,2012-11-21 08:15:00
2:35 AM,33.8,33.8,100,29.81,10.0,Calm,Calm,-,N/A,,Mostly Cloudy,0,2012-11-21 08:35:00
2:55 AM,32.0,32.0,100,29.81,10.0,SE,4.6,-,N/A,,Mostly Cloudy,130,2012-11-21 08:55:00
3:15 AM,32.0,32.0,100,29.81,10.0,ESE,4.6,-,N/A,,Mostly Cloudy,120,2012-11-21 09:15:00
3:35 AM,32.0,32.0,100,29.81,10.0,SE,5.8,-,N/A,,Partly Cloudy,130,2012-11-21 09:35:00
3:55 AM,32.0,32.0,100,29.80,10.0,ENE,3.5,-,N/A,,Clear,70,2012-11-21 09:55:00
4:15 AM,32.0,32.0,100,29.79,10.0,NE,3.5,-,N/A,,Clear,50,2012-11-21 10:15:00
4:35 AM,32.0,32.0,100,29.79,10.0,NE,4.6,-,N/A,,Clear,50,2012-11-21 10:35:00
4:55 AM,32.0,32.0,100,29.79,10.0,ENE,4.6,-,N/A,,Clear,70,2012-11-21 10:55:00
5:15 AM,32.0,32.0,100,29.79,10.0,NE,4.6,-,N/A,,Clear,50,2012-11-21 11:15:00
5:35 AM,32.0,32.0,100,29.79,10.0,NE,4.6,-,N/A,,Clear,40,2012-11-21 11:35:00
5:55 AM,32.0,32.0,100,29.79,10.0,ENE,6.9,-,N/A,,Clear,60,2012-11-21 11:55:00
6:15 AM,33.8,32.0,93,29.79,10.0,NE,8.1,-,N/A,,Clear,50,2012-11-21 12:15:00
6:35 AM,35.6,33.8,93,29.77,10.0,ENE,9.2,-,N/A,,Clear,70,2012-11-21 12:35:00
6:55 AM,35.6,32.0,87,29.76,10.0,East,8.1,-,N/A,,Clear,90,2012-11-21 12:55:00
7:15 AM,33.8,32.0,93,29.75,10.0,East,5.8,-,N/A,,Clear,80,2012-11-21 13:15:00
7:35 AM,32.0,32.0,100,29.76,10.0,Calm,Calm,-,N/A,,Clear,0,2012-11-21 13:35:00
7:55 AM,32.0,32.0,100,29.76,10.0,East,3.5,-,N/A,,Mostly Cloudy,100,2012-11-21 13:55:00
8:15 AM,32.0,32.0,100,29.74,10.0,ESE,8.1,-,N/A,,Mostly Cloudy,120,2012-11-21 14:15:00
8:35 AM,32.0,32.0,100,29.76,10.0,NNE,8.1,-,N/A,,Mostly Cloudy,30,2012-11-21 14:35:00
8:55 AM,33.8,32.0,93,29.74,10.0,East,6.9,-,N/A,,Overcast,100,2012-11-21 14:55:00
9:15 AM,32.0,32.0,100,29.74,10.0,East,3.5,-,N/A,,Scattered Clouds,90,2012-11-21 15:15:00
9:35 AM,35.6,33.8,93,29.73,10.0,Calm,Calm,-,N/A,,Clear,0,2012-11-21 15:35:00
9:55 AM,37.4,35.6,93,29.74,10.0,East,5.8,-,N/A,,Clear,100,2012-11-21 15:55:00
10:15 AM,35.6,35.6,100,29.72,10.0,ESE,4.6,-,N/A,,Clear,120,2012-11-21 16:15:00
10:35 AM,37.4,35.6,93,29.72,10.0,SE,3.5,-,N/A,,Mostly Cloudy,140,2012-11-21 16:35:00
10:55 AM,37.4,35.6,93,29.71,10.0,Calm,Calm,-,N/A,,Overcast,0,2012-11-21 16:55:00
11:15 AM,37.4,35.6,93,29.69,10.0,SSE,3.5,-,N/A,,Mostly Cloudy,150,2012-11-21 17:15:00
11:35 AM,39.2,35.6,87,29.68,10.0,Calm,Calm,-,N/A,,Partly Cloudy,0,2012-11-21 17:35:00
11:55 AM,39.2,35.6,87,29.67,10.0,South,3.5,-,N/A,,Clear,170,2012-11-21 17:55:00
12:15 PM,41.0,35.6,81,29.66,10.0,SE,4.6,-,N/A,,Clear,140,2012-11-21 18:15:00
12:35 PM,41.0,35.6,81,29.64,10.0,SSE,5.8,-,N/A,,Clear,150,2012-11-21 18:35:00
12:55 PM,44.6,35.6,71,29.63,10.0,South,6.9,-,N/A,,Clear,180,2012-11-21 18:55:00
1:15 PM,44.6,35.6,71,29.62,10.0,SE,3.5,-,N/A,,Clear,130,2012-11-21 19:15:00
1:35 PM,44.6,35.6,71,29.61,10.0,East,3.5,-,N/A,,Clear,80,2012-11-21 19:35:00
1:55 PM,44.6,35.6,71,29.60,10.0,East,5.8,-,N/A,,Clear,90,2012-11-21 19:55:00
2:15 PM,44.6,35.6,71,29.60,10.0,SE,5.8,-,N/A,,Clear,130,2012-11-21 20:15:00
2:35 PM,44.6,35.6,71,29.59,10.0,ESE,5.8,-,N/A,,Clear,120,2012-11-21 20:35:00
2:55 PM,44.6,35.6,71,29.58,10.0,ESE,4.6,-,N/A,,Clear,120,2012-11-21 20:55:00
3:15 PM,44.6,35.6,71,29.58,10.0,ESE,5.8,-,N/A,,Clear,120,2012-11-21 21:15:00
3:35 PM,44.6,37.4,76,29.58,10.0,SSE,5.8,-,N/A,,Clear,150,2012-11-21 21:35:00
3:55 PM,44.6,37.4,76,29.58,10.0,East,3.5,-,N/A,,Partly Cloudy,100,2012-11-21 21:55:00
4:15 PM,41.0,35.6,81,29.57,10.0,East,5.8,-,N/A,,Scattered Clouds,100,2012-11-21 22:15:00
4:35 PM,41.0,35.6,81,29.57,10.0,NE,3.5,-,N/A,,Partly Cloudy,40,2012-11-21 22:35:00
4:55 PM,39.2,35.6,87,29.58,10.0,NNE,5.8,-,N/A,,Clear,30,2012-11-21 22:55:00
5:15 PM,37.4,35.6,93,29.58,10.0,NNW,3.5,-,N/A,,Clear,340,2012-11-21 23:15:00
5:35 PM,35.6,35.6,100,29.59,10.0,North,4.6,-,N/A,,Scattered Clouds,360,2012-11-21 23:35:00
5:55 PM,35.6,33.8,93,29.59,10.0,NNE,4.6,-,N/A,,Partly Cloudy,30,2012-11-21 23:55:00
6:15 PM,35.6,35.6,100,29.60,10.0,Calm,Calm,-,N/A,,Scattered Clouds,0,2012-11-22 00:15:00
6:35 PM,35.6,35.6,100,29.59,10.0,South,4.6,-,N/A,,Mostly Cloudy,180,2012-11-22 00:35:00
6:55 PM,33.8,33.8,100,29.60,10.0,Calm,Calm,-,N/A,,Mostly Cloudy,0,2012-11-22 00:55:00
7:15 PM,33.8,33.8,100,29.59,10.0,WNW,3.5,-,N/A,,Mostly Cloudy,300,2012-11-22 01:15:00
7:35 PM,33.8,33.8,100,29.60,10.0,WNW,3.5,-,N/A,,Mostly Cloudy,290,2012-11-22 01:35:00
7:55 PM,35.6,35.6,100,29.61,10.0,West,8.1,-,N/A,,Scattered Clouds,280,2012-11-22 01:55:00
8:15 PM,35.6,35.6,100,29.62,10.0,WNW,6.9,-,N/A,,Clear,300,2012-11-22 02:15:00
8:35 PM,33.8,33.8,100,29.62,10.0,WNW,3.5,-,N/A,,Clear,290,2012-11-22 02:35:00
8:55 PM,32.0,32.0,100,29.64,10.0,NW,10.4,16.1,N/A,,Scattered Clouds,320,2012-11-22 02:55:00
9:15 PM,32.0,32.0,100,29.65,1.0,NW,9.2,17.3,N/A,,Overcast,320,2012-11-22 03:15:00
9:35 PM,32.0,32.0,100,29.66,1.5,NW,15.0,21.9,N/A,,Overcast,320,2012-11-22 03:35:00
9:55 PM,32.0,32.0,100,29.65,3.0,NW,17.3,24.2,N/A,,Overcast,320,2012-11-22 03:55:00
10:15 PM,32.0,32.0,100,29.66,5.0,NNW,17.3,26.5,N/A,,Overcast,330,2012-11-22 04:15:00
10:35 PM,32.0,32.0,100,29.69,1.8,NW,18.4,23.0,N/A,,Overcast,310,2012-11-22 04:35:00
10:55 PM,32.0,32.0,100,29.69,1.2,NNW,16.1,24.2,N/A,,Overcast,330,2012-11-22 04:55:00
11:15 PM,32.0,32.0,100,29.67,1.2,NNW,13.8,17.3,N/A,,Overcast,330,2012-11-22 05:15:00
11:35 PM,32.0,32.0,100,29.67,0.8,NW,13.8,20.7,N/A,,Overcast,320,2012-11-22 05:35:00
11:55 PM,32.0,32.0,100,29.67,1.2,NW,15.0,20.7,N/A,,Overcast,320,2012-11-22 05:55:00